Location: La Pernelle
(49.6188°N, 1.2999°W)
Time: 04:46:47
(UTC+00:00)

NOSS 3-2 (A) - Pass Details

Date: 17 October 2021
Orbit: 771 x 1437 km, 63.4° (Epoch: 21 November)

Event Time Altitude Azimuth Distance (km) Brightness Sun altitude
Rises 23:21:30 0° 316° (NW) 3,944 7.2 -49.5°
Reaches altitude 10° 23:24:03 10° 313° (NW) 3,073 6.4 -49.6°
Enters shadow 23:24:57 14° 311° (NW) 2,778 6.2 -49.6°
